Regional Weather Roundup
Issued by NWS Charleston, SC

Current Version | Previous Version | Graphics & Text | Print | Product List | Glossary On
Versions: 1 2 3 4 5 6 7 8 9 10 11 12 13 14 15 16 17 18 19 20 21 22 23 24 25 26 27 28 29 30 31 32 33 34 35 36 37 38 39 40 41 42 43 44 45 46 47 48 49 50
000 ASUS42 KCHS 281013 RWRCHS REGIONAL WEATHER ROUNDUP NATIONAL WEATHER SERVICE CHARLESTON SC 600 AM EDT THU JUL 28 2016 NOTE: "FAIR" INDICATES FEW OR NO CLOUDS BELOW 12,000 FEET WITH NO SIGNIFICANT WEATHER AND/OR OBSTRUCTIONS TO VISIBILITY. NOT ALL STATIONS ARE QUALITY CONTROLLED. USE DATA WITH CAUTION... ESPECIALLY DEWPOINT OBSERVATIONS. SCZ027-030-031-034>040-042>050-281100- ...SOUTHEAST SOUTH CAROLINA... CITY SKY/WX TMP DP RH WIND PRES REMARKS N CHARLESTON PTCLDY 81 73 76 W7 29.99S WATERFRONT PRK N/A 84 75 74 VRB3 29.97R HX 92 MOUNT PLEASANT FAIR 82 75 78 CALM 29.99S JOHNS ISLAND FAIR 82 75 78 SW6 29.99S PINOPOLIS N/A 82 77 83 SW9 29.91R HX 91 MONCKS CORNER FAIR 75 72 88 SW5 29.98S SUMMERVILLE NOT AVBL BEAUFORT MCAS CLEAR 81 71 71 MISG 30.01R BEAUFORT ARPT FAIR 81 72 74 W6 30.00S HILTON HEAD IS NOT AVBL WALTERBORO SUNNY 79 75 89 W3 30.01R ALLENDALE FAIR 77 72 83 CALM 30.00S ...SOUTHERN MIDLANDS AND PEE DEE... CITY SKY/WX TMP DP RH WIND PRES REMARKS GEORGETOWN NOT AVBL KINGSTREE FAIR 77 72 83 CALM 29.97R ORANGEBURG CLEAR 77 71 82 CALM 30.00R BARNWELL NOT AVBL AIKEN FAIR 73 70 88 SW5 30.04R MANNING FAIR 79 72 78 SW3 29.98S COLUMBIA CLEAR 78 70 76 S3 29.97S SUMTER CLEAR 79 70 75 SW7 29.95S FLORENCE CLEAR 80 71 74 SW6 29.96R MYRTLE BEACH CLEAR 81 70 69 W7 29.98R N MYRTLE BEACH CLEAR 81 77 88 W6 29.96R $$ GAZ063-065-086>088-099>101-113>116-118-119-134>141-150-281100- ...SOUTHEAST GEORGIA... CITY SKY/WX TMP DP RH WIND PRES REMARKS SAVANNAH ARPT CLEAR 78 71 79 W7 30.02S HUNTER AAF CLEAR 78 75 88 SW7 30.00S FORT STEWART CLEAR 79 71 76 W6 30.00F STATESBORO CLEAR 78 73 83 W5 30.02S SYLVANIA NOT AVBL CLAXTON FAIR 75 73 96 CALM 30.03R FOG ...CSRA...CENTRAL AND FAR SOUTHEAST GEORGIA... CITY SKY/WX TMP DP RH WIND PRES REMARKS THOMSON NOT AVBL AUGUSTA-BUSH CLEAR 78 71 79 SW3 29.99S AUGUSTA-DANIEL CLEAR 82 69 64 VRB5 30.01S SWAINSBORO FAIR 77 72 83 CALM 30.04R VIDALIA CLEAR 75 70 83 CALM 30.04S EASTMAN FAIR 75 74 98 CALM 30.07R HAZLEHURST FAIR 79 75 87 CALM 30.03S ALMA CLEAR 75 73 93 CALM 30.04S WAYCROSS CLEAR 78 77 97 CALM 30.05R JESUP FAIR 72 72 100 CALM 30.04R BAXLEY FAIR 77 77 100 CALM 30.04R BRUNSWICK CLEAR 79 77 94 W5 30.05R SAINT SIMONS CLEAR 80 75 84 SW7 30.04R $$ SCZ027-028-034-036>038-045-046-048>050-GAZ119-141-281100- ...LAKE AND SUPPLEMENTAL COASTAL OBSERVATIONS... STATION/POSITION TIME TEMP WIND PRES WAVE SWELL AIR SEA DIR/SP/G HT/PER HT/PER/DIR (UTC) (F) (DEG/KT/KT) (MB) (FT/S) (FT/S/D) WINYAH BAY NOT AVBL LAKE MURRAY 0900 83 280/ 12/ 15 1014.2F ACE BASIN NERRS NOT AVBL FORT PULASKI 0900 82 87 220/ 5/ 6 1016.8R SAPELO ISLAND 0900 82 220/ 9 1017.0S $$ ANZ835-935-AMZ111-154-330-350-352-354-370-450-454-472-281100- ...C-MAN AND BUOY OBSERVATIONS... STATION/POSITION TIME TEMP WIND PRES WAVE SWELL AIR SEA DIR/SP/G HT/PER HT/PER/DIR (UTC) (F) (DEG/KT/KT) (MB) (FT/S) (FT/S/D) BUOY 41004 0950 85 86 250/ 19/ 21 1014.7R 5/ 5 BUOY 41008 0950 85 86 250/ 14/ 17 1016.5R 3/ 5 FOLLY BEACH CMAN 1000 82 250/ 5/ 6 1015.8R CAPERS NEARSHORE 0908 85 83 260/ 12/ 16 1015.1R FRIPP NEARSHORE 0908 85 87 260/ 14/ 17 1015.5R STATION/POSITION TIME TEMP WIND PRES WAVE SWELL AIR SEA DIR/SP/G HT/PER HT/PER/DIR (UTC) (F) (DEG/KT/KT) (MB) (FT/S) (FT/S/D) 5E ST. MARYS GA 1001 85 N/A 2/ 4 FRYING PAN BUOY 0900 85 85 250/ 19/ 23 1014.0S BUOY 41025 0950 84 84 220/ 4/ 6 1013.9R 3/ 6 3/210/ 6 CAPE LOOKOUT NC 0900 82 240/ 6/ 8 1013.3F BUOY 41002 0950 84 84 260/ 14/ 16 1015.7R 3/ 6 2/170/ 7 BUOY 41010 0920 85 86 230/ 6/ 8 1017.5R ST AUGUSTINE FL 1000 79 84 220/ 3/ 3 1018.5S $$

USA.gov is the U.S. government's official web portal to all federal, state and local government web resources and services.